CYGFM05 (41884 NORAD) Tracking and Keplerian Element Data

This shows tracking and keplerian element data for the satellite.

Feedback or suggestion? Click here.




ElementValue
Catalog41884
NameCYGFM05
Epoch Orbit18235
Epoch Day91.96718697
Epoch Year2020
RAAN181.2657
Inclination34.9559
Eccentricity0.0015202
Argument of Perigee72.2167
Mean Anonmoly288.0201
Mean Motion15.14581883
Decay Rate3.54E-06
L11 41884U 16078A 20091.96718697 .00000354 00000-0 20482-4 0 9994
L22 41884 34.9559 181.2657 0015202 72.2167 288.0201 15.14581883182351

Live tracking and technical data element details for CYGFM05 (NORAD 41884). CYGFM05 can be tracked NOW for your location showing map with azimuth and elevation plus other details from your city location.

Track the satellite on the map from your city or location and see movement details for azimuth, elevation, latitude, longitude, range, height, and movement on the map or in text.







IsCatalogInMostPopularTable: catalog: 41884, numindb: 348
Update: records affected: 1



GetName: 41884 CYGFM05

Hit Count: updated at: Thu, 02 Apr 2020 03:30:13 GMT